Regional Weather Roundup
Issued by NWS Charleston, SC

Current Version | Previous Version | Graphics & Text | Print | Product List | Glossary On
Versions: 1 2 3 4 5 6 7 8 9 10 11 12 13 14 15 16 17 18 19 20 21 22 23 24 25 26 27 28 29 30 31 32 33 34 35 36 37 38 39 40 41 42 43 44 45 46 47 48 49 50
000
ASUS42 KCHS 241111
RWRCHS

REGIONAL WEATHER ROUNDUP
NATIONAL WEATHER SERVICE CHARLESTON SC
600 AM EST FRI FEB 24 2017

NOTE: "FAIR" INDICATES FEW OR NO CLOUDS BELOW 12,000 FEET WITH NO
SIGNIFICANT WEATHER AND/OR OBSTRUCTIONS TO VISIBILITY.

NOT ALL STATIONS ARE QUALITY CONTROLLED. USE DATA WITH CAUTION...
ESPECIALLY DEWPOINT OBSERVATIONS.

SCZ027-030-031-034>040-042>050-241200-
...SOUTHEAST SOUTH CAROLINA...

CITY           SKY/WX    TMP DP  RH WIND       PRES   REMARKS
N CHARLESTON   CLEAR     57  55  93 NE6       29.86S
WATERFRONT PRK   N/A     60  59  96 N6        29.86R
MOUNT PLEASANT FAIR      57  57 100 N3        29.87S FOG
JOHNS ISLAND   FAIR      59  59 100 N5        29.86S
PINOPOLIS        N/A     57  57 100 E6        29.79S
MONCKS CORNER  FAIR      55  54  94 NE3       29.87S
SUMMERVILLE    FAIR      55  55 100 N3        29.88S
BEAUFORT MCAS  CLEAR     57  57 100 N6        29.86R
BEAUFORT ARPT  FAIR      61  59  94 NE6       29.86R
HILTON HEAD IS NOT AVBL
WALTERBORO       N/A     54  54 100 CALM      29.88S FOG
ALLENDALE      FAIR      55  55 100 CALM      29.87S FOG

...SOUTHERN MIDLANDS AND PEE DEE...

CITY           SKY/WX    TMP DP  RH WIND       PRES   REMARKS
GEORGETOWN     FAIR      54  54 100 CALM      29.89R
KINGSTREE      FAIR      54  52  94 CALM      29.89R
ORANGEBURG     CLEAR     54  54 100 CALM      29.89R FOG
BARNWELL       FAIR      57  57 100 CALM      29.89S FOG
AIKEN          FOG       48  48 100 CALM      29.92S VSB 1/4
MANNING        FAIR      54  52  94 MISG      29.89R
COLUMBIA       CLEAR     50  47  89 W3        29.89R
SUMTER         CLEAR     54  52  94 N6        29.88R
FLORENCE       PTCLDY    54  54 100 NE5       29.90S
MYRTLE BEACH   CLEAR     57  55  94 N9        29.90R
N MYRTLE BEACH CLEAR     57  57 100 N5        29.88S

$$

GAZ063-065-086>088-099>101-113>116-118-119-134>141-150-241200-
...SOUTHEAST GEORGIA...

CITY           SKY/WX    TMP DP  RH WIND       PRES   REMARKS
SAVANNAH ARPT  PTCLDY    60  57  89 NE8       29.85S
HUNTER AAF     CLEAR     60  60 100 NE5       29.83R
FORT STEWART   PTCLDY    58  56  95 CALM      29.83R
STATESBORO     FOG       53  32  45 CALM      29.87S VSB 1/4
SYLVANIA       SUNNY    N/A N/A N/A CALM      29.88R FOG
CLAXTON          N/A    N/A N/A N/A CALM      29.87R FOG

...CSRA...CENTRAL AND FAR SOUTHEAST GEORGIA...

CITY           SKY/WX    TMP DP  RH WIND       PRES   REMARKS
THOMSON        PTCLDY    49  49 100 CALM      29.94S
AUGUSTA-BUSH   PTCLDY    51  50  96 CALM      29.88S
AUGUSTA-DANIEL CLEAR     59  55  87 E3        29.90R
SWAINSBORO     FAIR      59  59 100 NE3       29.89R
VIDALIA        CLEAR     59  59 100 NE3       29.87R FOG
EASTMAN        FOG       51  51 100 CALM      29.90R VSB 3/4
HAZLEHURST     FAIR      58  58 100 CALM      29.86R
ALMA           CLEAR     59  58  96 CALM      29.85R FOG
WAYCROSS       FOG       59  59 100 CALM      29.85R VSB 1/2
JESUP          FAIR      61  57  88 NE3       29.85S
BAXLEY         FAIR      59  59 100 NE3       29.86R FOG
BRUNSWICK      CLEAR     61  61 100 CALM      29.84R
SAINT SIMONS   CLOUDY    63  61  93 N9        29.83R

$$

SCZ027-028-034-036>038-045-046-048>050-GAZ119-141-241200-
...LAKE AND SUPPLEMENTAL COASTAL OBSERVATIONS...

STATION/POSITION TIME  TEMP    WIND        PRES    WAVE   SWELL
                       AIR SEA DIR/SP/G            HT/PER HT/PER/DIR
                 (UTC) (F)     (DEG/KT/KT) (MB)    (FT/S) (FT/S/D)
WINYAH BAY       NOT AVBL
LAKE MURRAY      1020   56        CALM     1011.9S
ACE BASIN NERRS  NOT AVBL
FORT PULASKI     1048   62 62  360/  5/  7 1010.9R
SAPELO ISLAND    1000   61      30/  6     1010.0

$$

ANZ835-935-AMZ111-154-330-350-352-354-370-450-454-472-241200-
...C-MAN AND BUOY OBSERVATIONS...

STATION/POSITION TIME  TEMP    WIND        PRES    WAVE   SWELL
                       AIR SEA DIR/SP/G            HT/PER HT/PER/DIR
                 (UTC) (F)     (DEG/KT/KT) (MB)    (FT/S) (FT/S/D)
BUOY 41004       0950   70 70   40/  8/ 10 1009.7    9/10   8/140/10
BUOY 41008       0950   63 62   40/ 14/ 16 1009.0    6/10   5/130/10
FOLLY BEACH CMAN 1000   60     350/  6/  7 1011.5R
CAPERS NEARSHORE 1008   61 60   40/ 12/ 16 1010.6R
FRIPP NEARSHORE  1008   62 61   30/  8/ 12 1010.2F


STATION/POSITION TIME  TEMP    WIND        PRES    WAVE   SWELL
                       AIR SEA DIR/SP/G            HT/PER HT/PER/DIR
                 (UTC) (F)     (DEG/KT/KT) (MB)    (FT/S) (FT/S/D)
5E ST. MARYS GA  1030      63                N/A     6/10   2/110/11
FRYING PAN BUOY  1050   71 72   80/ 10/ 14 1011.0R   9/ 9   8/140/ 9
BUOY 41025       1050   71 73  120/ 14/ 17 1012.8R   7/ 7   5/120/ 7
CAPE LOOKOUT NC  1000   62      10/  6/  7 1012.2R
BUOY 41002       0950   69 69   80/ 23/ 27 1007.7   11/ 9   7/120/ 9
BUOY 41010       NOT AVBL
ST AUGUSTINE FL  1100   66 66  360/ 14/ 15 1009.7R


$$




USA.gov is the U.S. government's official web portal to all federal, state and local government web resources and services.